WetterOnline ( https://www.wetteronline.de )

Wetter aktuell Mannheim

Aktuelles Wetter: Mannheim (100m)

6-stündlich | Neueste Meldungen
Ortszeit Temperatur Wetter
Do, 29.09. 2:00 8.3° C leicht bewölkt
Mi, 28.09. 20:00 11.8° C bewölkt
Mi, 28.09. 14:00 12.9° C bewölkt
Mi, 28.09. 8:00 9.6° C bedeckt
Mi, 28.09. 2:00 9.2° C leichter Regen
Di, 27.09. 20:00 10.4° C bedeckt
Di, 27.09. 14:00 12.0° C leichter Regen
Di, 27.09. 8:00 10.3° C Sprühregen
Ortszeit Temperatur Wetter
Do, 29.09. 7:30 6.8° C bewölkt
Do, 29.09. 7:20 6.8° C Dunst
Do, 29.09. 7:10 6.1° C Dunst
Do, 29.09. 7:00 6.9° C bedeckt
Do, 29.09. 6:50 6.9° C bedeckt
Do, 29.09. 6:40 6.7° C Dunst
Do, 29.09. 6:30 6.8° C wolkig
Do, 29.09. 6:00 7.5° C Nebel
Do, 29.09. 5:30 7.6° C Nebel
Do, 29.09. 5:00 7.8° C bedeckt
Do, 29.09. 4:30 8.0° C bedeckt
Ortszeit Relative Feuchte Sichtweite
Do, 29.09. 2:00 95% 30 km
Mi, 28.09. 20:00 71% 50 km
Mi, 28.09. 14:00 61% 65 km
Mi, 28.09. 8:00 90% 60 km
Mi, 28.09. 2:00 94% 26 km
Di, 27.09. 20:00 77% 65 km
Di, 27.09. 14:00 73% 28 km
Di, 27.09. 8:00 83% 50 km
Ortszeit Relative Feuchte Sichtweite
Do, 29.09. 7:30 100% 7 km
Do, 29.09. 7:20 100% -
Do, 29.09. 7:10 98% -
Do, 29.09. 7:00 98% 9 km
Do, 29.09. 6:50 98% -
Do, 29.09. 6:40 99% -
Do, 29.09. 6:30 97% 6 km
Do, 29.09. 6:00 98% 8 km
Do, 29.09. 5:30 100% 4.7 km
Do, 29.09. 5:00 98% 4.8 km
Do, 29.09. 4:30 99% 3.3 km
Ortszeit Niederschlagsmenge Niederschlagsart
Do, 29.09. 2:00 0.4 l/m2 in 6 Std. Regen
Mi, 28.09. 20:00 0.0 l/m2 in 12 Std. -
Mi, 28.09. 14:00 0.0 l/m2 in 6 Std. -
Mi, 28.09. 8:00 4 l/m2 in 12 Std. Regen
Mi, 28.09. 2:00 1 l/m2 in 6 Std. Regen
Di, 27.09. 20:00 2 l/m2 in 12 Std. Regen
Di, 27.09. 14:00 0.1 l/m2 in 6 Std. Regen
Di, 27.09. 8:00 10 l/m2 in 12 Std. Regen
Ortszeit Niederschlagsmenge Niederschlagsart
Do, 29.09. 7:30 0.0 l/m2 in 1 Std. -
Do, 29.09. 7:20 keine Meldung -
Do, 29.09. 7:10 keine Meldung -
Do, 29.09. 7:00 0.0 l/m2 in 1 Std. -
Do, 29.09. 6:50 keine Meldung -
Do, 29.09. 6:40 keine Meldung -
Do, 29.09. 6:30 0.0 l/m2 in 1 Std. -
Do, 29.09. 6:00 <0.05 l/m2 in 1 Std. -
Do, 29.09. 5:30 <0.05 l/m2 in 1 Std. -
Do, 29.09. 5:00 0.0 l/m2 in 1 Std. -
Do, 29.09. 4:30 0.0 l/m2 in 1 Std. -
Ortszeit Stärke Spitze Richtung
km/h Bft. km/h Grad Sektor
Do, 29.09. 2:00 7 2 25 140° SO
Mi, 28.09. 20:00 7 2 25 160° S
Mi, 28.09. 14:00 9 2 28 240° SW
Mi, 28.09. 8:00 7 2 25 220° SW
Mi, 28.09. 2:00 11 2 29 150° SO
Di, 27.09. 20:00 15 3 35 200° S
Di, 27.09. 14:00 17 3 33 200° S
Di, 27.09. 8:00 14 3 32 210° SW
Ortszeit Stärke Spitze Richtung
km/h Bft. km/h Grad Sektor
Do, 29.09. 7:30 4 1 7 250° W
Do, 29.09. 7:20 4 1 - 250° W
Do, 29.09. 7:10 4 1 - 230° SW
Do, 29.09. 7:00 4 1 7 120° SO
Do, 29.09. 6:50 4 1 - 120° SO
Do, 29.09. 6:40 6 1 - 90° O
Do, 29.09. 6:30 4 1 7 90° O
Do, 29.09. 6:00 6 1 11 160° S
Do, 29.09. 5:30 6 1 11 170° S
Do, 29.09. 5:00 7 2 14 170° S
Do, 29.09. 4:30 7 2 14 140° SO
Ortszeit Untergrenze Bedeckung Gattung
total tief tief mittel hoch
Do, 29.09. 2:00 1440 m 4/8 4/8 - - -
Mi, 28.09. 20:00 1470 m 7/8 7/8 - - -
Mi, 28.09. 14:00 1140 m 7/8 7/8 - - -
Mi, 28.09. 8:00 720 m 8/8 8/8 - - -
Mi, 28.09. 2:00 420 m 8/8 8/8 - - -
Di, 27.09. 20:00 900 m 8/8 8/8 - - -
Di, 27.09. 14:00 870 m 8/8 7/8 - - -
Di, 27.09. 8:00 960 m 8/8 8/8 - - -
Ortszeit Bedeckungsgrad in Achtel und Wolkenuntergrenze
Do, 29.09. 7:30 6(120m) 8(5700m) 8(6600m)
Do, 29.09. 7:20 6(120m) 8(5700m) 8(6600m)
Do, 29.09. 7:10 8
Do, 29.09. 7:00 8(5100m)
Do, 29.09. 6:50 8(5100m)
Do, 29.09. 6:40 8
Do, 29.09. 6:30 1(2400m) 8(5400m)
Do, 29.09. 6:00 2(60m) 7(2400m) 8(5700m)
Do, 29.09. 5:30 6(30m) 7(2400m) 8(6000m)
Do, 29.09. 5:00 8(60m)
Do, 29.09. 4:30 8(30m)
Ortszeit Luftdruck NN (hPa) Tendenz (hPa in 3 Std.)
Do, 29.09. 2:00 1002 0,0
Mi, 28.09. 20:00 1001 + 1,1
Mi, 28.09. 14:00 999 + 0,4
Mi, 28.09. 8:00 997 + 0,4
Mi, 28.09. 2:00 999 - 2,7
Di, 27.09. 20:00 1002 + 1,0
Di, 27.09. 14:00 1001 - 0,6
Di, 27.09. 8:00 1000 + 1,7
Ortszeit Luftdruck NN (hPa) Tendenz (hPa in 3 Std.)
Do, 29.09. 7:30 1002 + 0,4
Do, 29.09. 7:20 1002 keine Meldung
Do, 29.09. 7:10 1002 keine Meldung
Do, 29.09. 7:00 1002 + 0,1
Do, 29.09. 6:50 1002 keine Meldung
Do, 29.09. 6:40 1002 keine Meldung
Do, 29.09. 6:30 1002 + 0,3
Do, 29.09. 6:00 1002 + 0,1
Do, 29.09. 5:30 1002 0,0
Do, 29.09. 5:00 1002 + 0,1
Do, 29.09. 4:30 1002 0,0
Ortszeit Schneehöhe (cm)
Do, 29.09. 2:00 0
Mi, 28.09. 20:00 0
Mi, 28.09. 14:00 0
Mi, 28.09. 8:00 0
Mi, 28.09. 2:00 0
Di, 27.09. 20:00 0
Di, 27.09. 14:00 0
Di, 27.09. 8:00 0
Ortszeit Schneehöhe (cm)
Do, 29.09. 7:30 0
Do, 29.09. 7:20 0
Do, 29.09. 7:10 0
Do, 29.09. 7:00 0
Do, 29.09. 6:50 0
Do, 29.09. 6:40 0
Do, 29.09. 6:30 0
Do, 29.09. 6:00 0
Do, 29.09. 5:30 0
Do, 29.09. 5:00 0
Do, 29.09. 4:30 0
Link zu dieser Seite / Seite empfehlen

Das Wetter in ...